CFG7VJ EDDH-EDDF

Flight info

Callsign CFG7VJ
Flight time 0h 52m
Altitude 30000
Route AMLUH2C AMLUH M852 DENIX DCT RIMET/N0443F310 T157 KOKEB/N0401F230 T157 KERAX KERAX5A
Aircraft A320/M-SDE3FGHIRWY/LB1

Departure

Time 2026-05-07 15:32
Airport Hamburg Helmut Schmidt Airport (EDDH)

Arrival

Time 2026-05-07 16:24
Airport Frankfurt Main Airport (EDDF)
Time Latitude Longitude Altitude Speed Heading
2026-05-07 15:11 53.62808 10.00242 48 ft 0 kts 62°
2026-05-07 15:21 53.62802 10.00224 47 ft 3 kts 60°
2026-05-07 15:21 53.62792 10.00194 46 ft 3 kts 60°
2026-05-07 15:22 53.62782 10.00166 45 ft 3 kts 55°
2026-05-07 15:22 53.62775 10.00149 47 ft 1 kts 32°
2026-05-07 15:22 53.62768 10.00142 48 ft 1 kts 352°
2026-05-07 15:22 53.62756 10.00148 49 ft 3 kts 333°
2026-05-07 15:23 53.62741 10.00161 46 ft 1 kts 332°
2026-05-07 15:23 53.62733 10.00167 46 ft 1 kts 333°
2026-05-07 15:23 53.62730 10.00171 45 ft 0 kts 333°
2026-05-07 15:26 53.62747 10.00156 46 ft 7 kts 333°
2026-05-07 15:26 53.62775 10.00132 48 ft 0 kts 333°
2026-05-07 15:27 53.62776 10.00131 48 ft 2 kts 333°
2026-05-07 15:28 53.62824 10.00091 48 ft 9 kts 333°
2026-05-07 15:28 53.62858 10.00020 48 ft 7 kts 273°
2026-05-07 15:28 53.62850 9.99978 45 ft 0 kts 243°
2026-05-07 15:30 53.62818 9.99877 43 ft 13 kts 242°
2026-05-07 15:30 53.62821 9.99788 45 ft 11 kts 310°
2026-05-07 15:31 53.62835 9.99773 45 ft 1 kts 333°
2026-05-07 15:31 53.62848 9.99762 45 ft 3 kts 333°
2026-05-07 15:31 53.62905 9.99713 45 ft 33 kts 333°
2026-05-07 15:31 53.63340 9.99336 47 ft 104 kts 333°
2026-05-07 15:32 53.64161 9.98629 56 ft 159 kts 332°
2026-05-07 15:32 53.65173 9.97748 567 ft 163 kts 339°
2026-05-07 15:32 53.66178 9.96890 1236 ft 162 kts 337°
2026-05-07 15:32 53.67179 9.96029 1855 ft 163 kts 337°
2026-05-07 15:33 53.68254 9.95115 2164 ft 183 kts 339°
2026-05-07 15:33 53.69547 9.94654 2421 ft 200 kts
2026-05-07 15:33 53.71006 9.94687 2872 ft 215 kts
2026-05-07 15:33 53.72443 9.95168 3711 ft 211 kts 34°
2026-05-07 15:34 53.73376 9.96995 4473 ft 209 kts 70°
2026-05-07 15:34 53.73763 9.99375 5228 ft 211 kts 75°
2026-05-07 15:34 53.74078 10.01817 5962 ft 215 kts 85°
2026-05-07 15:34 53.73905 10.04348 6621 ft 226 kts 106°
2026-05-07 15:35 53.73159 10.06839 6943 ft 251 kts 118°
2026-05-07 15:35 53.72254 10.09491 7408 ft 267 kts 118°
2026-05-07 15:35 53.71317 10.12250 8151 ft 273 kts 118°
2026-05-07 15:35 53.70367 10.15065 8909 ft 279 kts 119°
2026-05-07 15:36 53.69311 10.17837 9673 ft 284 kts 130°
2026-05-07 15:36 53.67854 10.20121 10366 ft 290 kts 145°
2026-05-07 15:36 53.66028 10.21714 10622 ft 312 kts 162°
2026-05-07 15:36 53.63861 10.22724 10810 ft 334 kts 165°
2026-05-07 15:37 53.61530 10.23760 11248 ft 347 kts 165°
2026-05-07 15:37 53.59181 10.24809 11909 ft 351 kts 165°
2026-05-07 15:37 53.56808 10.25884 12601 ft 355 kts 165°
2026-05-07 15:37 53.54445 10.26965 13282 ft 359 kts 165°
2026-05-07 15:38 53.51992 10.28088 13963 ft 362 kts 165°
2026-05-07 15:38 53.49549 10.29206 14562 ft 366 kts 165°
2026-05-07 15:38 53.47082 10.30334 15161 ft 369 kts 165°
2026-05-07 15:38 53.44593 10.31469 15749 ft 372 kts 165°
2026-05-07 15:39 53.42081 10.32609 16331 ft 376 kts 165°
2026-05-07 15:39 53.39543 10.33754 16909 ft 380 kts 166°
2026-05-07 15:39 53.37014 10.34891 17482 ft 383 kts 166°
2026-05-07 15:39 53.34430 10.36052 18061 ft 386 kts 166°
2026-05-07 15:40 53.31822 10.37223 18600 ft 390 kts 166°
2026-05-07 15:40 53.29194 10.38408 19121 ft 393 kts 166°
2026-05-07 15:40 53.26545 10.39603 19651 ft 395 kts 166°
2026-05-07 15:40 53.23882 10.40800 20181 ft 398 kts 166°
2026-05-07 15:41 53.21199 10.41997 20709 ft 400 kts 166°
2026-05-07 15:41 53.18498 10.43194 21217 ft 403 kts 166°
2026-05-07 15:41 53.15777 10.44397 21708 ft 406 kts 167°
2026-05-07 15:41 53.12999 10.45252 22182 ft 407 kts 176°
2026-05-07 15:42 53.10166 10.45330 22650 ft 408 kts 185°
2026-05-07 15:42 53.07327 10.44934 23113 ft 411 kts 186°
2026-05-07 15:42 53.04472 10.44532 23572 ft 413 kts 186°
2026-05-07 15:42 53.01599 10.44133 23951 ft 416 kts 186°
2026-05-07 15:43 52.98706 10.43734 24316 ft 418 kts 186°
2026-05-07 15:43 52.95798 10.43340 24670 ft 420 kts 186°
2026-05-07 15:43 52.92878 10.42949 25021 ft 422 kts 186°
2026-05-07 15:43 52.89940 10.42554 25363 ft 425 kts 186°
2026-05-07 15:44 52.86992 10.42155 25708 ft 427 kts 186°
2026-05-07 15:44 52.84022 10.41751 26032 ft 429 kts 186°
2026-05-07 15:44 52.81044 10.41345 26360 ft 431 kts 186°
2026-05-07 15:44 52.78049 10.40937 26680 ft 433 kts 185°
2026-05-07 15:45 52.75044 10.40529 26999 ft 435 kts 185°
2026-05-07 15:45 52.72021 10.40122 27314 ft 437 kts 185°
2026-05-07 15:45 52.68990 10.39714 27616 ft 439 kts 185°
2026-05-07 15:45 52.65941 10.39301 27916 ft 440 kts 185°
2026-05-07 15:46 52.59807 10.38472 28488 ft 444 kts 185°
2026-05-07 15:46 52.56721 10.38058 28764 ft 446 kts 185°
2026-05-07 15:46 52.53629 10.37642 29028 ft 447 kts 185°
2026-05-07 15:47 52.50519 10.37223 29311 ft 449 kts 186°
2026-05-07 15:47 52.47398 10.36806 29586 ft 451 kts 186°
2026-05-07 15:47 52.44271 10.36389 29851 ft 452 kts 185°
2026-05-07 15:47 52.41130 10.35966 30046 ft 452 kts 186°
2026-05-07 15:48 52.38020 10.35550 30084 ft 445 kts 185°
2026-05-07 15:48 52.31894 10.34732 30085 ft 440 kts 186°
2026-05-07 15:49 52.25796 10.33920 30081 ft 440 kts 186°
2026-05-07 15:49 52.19699 10.33114 30087 ft 439 kts 186°
2026-05-07 15:50 52.13608 10.32314 30086 ft 439 kts 186°
2026-05-07 15:50 52.07520 10.31517 30085 ft 439 kts 185°
2026-05-07 15:51 52.01477 10.30728 30085 ft 438 kts 186°
2026-05-07 15:51 51.95405 10.29936 30087 ft 438 kts 185°
2026-05-07 15:52 51.89335 10.29148 30088 ft 437 kts 186°
2026-05-07 15:52 51.83275 10.28356 30091 ft 437 kts 185°
2026-05-07 15:53 51.77223 10.27569 30088 ft 436 kts 185°
2026-05-07 15:53 51.71169 10.26783 29667 ft 437 kts 185°
2026-05-07 15:53 51.68143 10.26395 29208 ft 435 kts 185°
2026-05-07 15:54 51.65134 10.26008 28761 ft 433 kts 185°
2026-05-07 15:54 51.62140 10.25623 28308 ft 430 kts 185°
2026-05-07 15:54 51.59162 10.25237 27873 ft 428 kts 185°
2026-05-07 15:54 51.56200 10.24857 27445 ft 426 kts 185°
2026-05-07 15:55 51.53257 10.24483 27015 ft 423 kts 185°
2026-05-07 15:55 51.50329 10.24111 26590 ft 421 kts 185°
2026-05-07 15:55 51.47416 10.23739 26175 ft 419 kts 185°
2026-05-07 15:55 51.44515 10.23368 25776 ft 417 kts 185°
2026-05-07 15:56 51.41631 10.22996 25376 ft 415 kts 185°
2026-05-07 15:56 51.38763 10.22626 24983 ft 413 kts 185°
2026-05-07 15:56 51.35908 10.22260 24587 ft 411 kts 185°
2026-05-07 15:56 51.33063 10.21909 24205 ft 409 kts 184°
2026-05-07 15:57 51.30229 10.21698 23824 ft 407 kts 182°
2026-05-07 15:57 51.27401 10.21622 23419 ft 405 kts 181°
2026-05-07 15:57 51.24589 10.21617 22997 ft 403 kts 180°
2026-05-07 15:57 51.21789 10.21630 22586 ft 401 kts 180°
2026-05-07 15:58 51.19002 10.21632 22173 ft 399 kts 181°
2026-05-07 15:58 51.16236 10.21608 21780 ft 397 kts 181°
2026-05-07 15:58 51.13482 10.21561 21388 ft 395 kts 181°
2026-05-07 15:58 51.10738 10.21506 20997 ft 393 kts 181°
2026-05-07 15:59 51.08013 10.21450 20615 ft 391 kts 181°
2026-05-07 15:59 51.05299 10.21396 20233 ft 389 kts 181°
2026-05-07 15:59 51.02600 10.21343 19859 ft 387 kts 181°
2026-05-07 15:59 50.99912 10.21292 19480 ft 385 kts 181°
2026-05-07 16:00 50.97238 10.21243 19112 ft 384 kts 181°
2026-05-07 16:00 50.94572 10.21195 18760 ft 382 kts 181°
2026-05-07 16:00 50.91919 10.21146 18405 ft 380 kts 181°
2026-05-07 16:00 50.89277 10.21096 18003 ft 379 kts 181°
2026-05-07 16:01 50.86656 10.20927 17596 ft 376 kts 189°
2026-05-07 16:01 50.84148 10.19907 17214 ft 372 kts 202°
2026-05-07 16:01 50.81831 10.18111 16844 ft 369 kts 212°
2026-05-07 16:01 50.79741 10.15787 16483 ft 366 kts 221°
2026-05-07 16:02 50.77899 10.13040 16122 ft 363 kts 229°
2026-05-07 16:02 50.76349 10.09913 15765 ft 360 kts 238°
2026-05-07 16:02 50.75126 10.06481 15409 ft 358 kts 244°
2026-05-07 16:02 50.74008 10.02987 15069 ft 356 kts 244°
2026-05-07 16:03 50.72894 9.99507 14751 ft 354 kts 244°
2026-05-07 16:03 50.71784 9.96042 14434 ft 353 kts 244°
2026-05-07 16:03 50.70677 9.92591 14136 ft 352 kts 244°
2026-05-07 16:03 50.69576 9.89159 13852 ft 350 kts 244°
2026-05-07 16:04 50.68479 9.85735 13531 ft 349 kts 244°
2026-05-07 16:04 50.67386 9.82331 13211 ft 347 kts 244°
2026-05-07 16:04 50.66293 9.78941 12936 ft 346 kts 244°
2026-05-07 16:04 50.65177 9.75595 12671 ft 345 kts 241°
2026-05-07 16:05 50.63825 9.72470 12409 ft 345 kts 233°
2026-05-07 16:05 50.62225 9.69655 12148 ft 345 kts 226°
2026-05-07 16:05 50.60408 9.67203 11899 ft 345 kts 218°
2026-05-07 16:05 50.58387 9.65145 11640 ft 345 kts 210°
2026-05-07 16:06 50.56218 9.63519 11391 ft 345 kts 202°
2026-05-07 16:06 50.54000 9.62084 11150 ft 344 kts 207°
2026-05-07 16:06 50.51932 9.60234 11036 ft 341 kts 216°
2026-05-07 16:06 50.50061 9.57951 11052 ft 340 kts 223°
2026-05-07 16:07 50.48420 9.55289 11050 ft 339 kts 232°
2026-05-07 16:07 50.47036 9.52301 11055 ft 338 kts 239°
2026-05-07 16:07 50.45932 9.49063 11059 ft 337 kts 248°
2026-05-07 16:07 50.45127 9.45626 11056 ft 335 kts 255°
2026-05-07 16:08 50.44478 9.42119 11051 ft 335 kts 255°
2026-05-07 16:08 50.43819 9.38613 11052 ft 335 kts 255°
2026-05-07 16:08 50.43155 9.35118 11063 ft 335 kts 255°
2026-05-07 16:08 50.42481 9.31611 11053 ft 335 kts 254°
2026-05-07 16:09 50.41808 9.28119 11049 ft 335 kts 254°
2026-05-07 16:09 50.41133 9.24618 10821 ft 335 kts 253°
2026-05-07 16:09 50.40416 9.21160 10568 ft 333 kts 252°
2026-05-07 16:09 50.39629 9.17757 10330 ft 332 kts 250°
2026-05-07 16:10 50.38801 9.14382 10083 ft 331 kts 250°
2026-05-07 16:10 50.37999 9.11057 9894 ft 316 kts 250°
2026-05-07 16:10 50.37262 9.07960 9751 ft 292 kts 250°
2026-05-07 16:10 50.36573 9.05025 9627 ft 284 kts 251°
2026-05-07 16:11 50.35897 9.02120 9480 ft 282 kts 251°
2026-05-07 16:11 50.35229 8.99242 9357 ft 281 kts 251°
2026-05-07 16:11 50.34561 8.96371 9222 ft 280 kts 251°
2026-05-07 16:11 50.33894 8.93519 9083 ft 279 kts 251°
2026-05-07 16:12 50.33226 8.90670 8960 ft 278 kts 251°
2026-05-07 16:12 50.32786 8.88793 8870 ft 278 kts 251°
2026-05-07 16:12 50.32081 8.85974 8730 ft 278 kts 243°
2026-05-07 16:12 50.30829 8.83706 8619 ft 279 kts 216°
2026-05-07 16:13 50.29038 8.82553 8380 ft 282 kts 189°
2026-05-07 16:13 50.27096 8.82800 8136 ft 283 kts 161°
2026-05-07 16:13 50.25435 8.84421 8008 ft 285 kts 133°
2026-05-07 16:13 50.24427 8.87065 8018 ft 287 kts 106°
2026-05-07 16:14 50.24097 8.90149 8019 ft 288 kts 95°
2026-05-07 16:14 50.23924 8.93276 8017 ft 289 kts 94°
2026-05-07 16:14 50.23768 8.96399 8015 ft 288 kts 94°
2026-05-07 16:14 50.23616 8.99511 7735 ft 287 kts 94°
2026-05-07 16:15 50.23470 9.02587 7508 ft 279 kts 94°
2026-05-07 16:15 50.23331 9.05537 7202 ft 267 kts 94°
2026-05-07 16:15 50.23193 9.08368 6834 ft 257 kts 95°
2026-05-07 16:15 50.22699 9.10972 6468 ft 249 kts 124°
2026-05-07 16:16 50.21461 9.12803 6081 ft 246 kts 156°
2026-05-07 16:16 50.19831 9.13365 5692 ft 241 kts 187°
2026-05-07 16:16 50.18294 9.12529 5315 ft 234 kts 220°
2026-05-07 16:16 50.17324 9.10587 4981 ft 225 kts 253°
2026-05-07 16:17 50.17116 9.08208 4953 ft 224 kts 267°
2026-05-07 16:17 50.16879 9.05789 4950 ft 227 kts 256°
2026-05-07 16:17 50.16403 9.03435 4958 ft 228 kts 252°
2026-05-07 16:17 50.15860 9.01109 4949 ft 228 kts 251°
2026-05-07 16:18 50.15313 8.98783 4958 ft 229 kts 251°
2026-05-07 16:18 50.14767 8.96455 4961 ft 228 kts 251°
2026-05-07 16:18 50.14223 8.94131 4966 ft 228 kts 251°
2026-05-07 16:18 50.13677 8.91805 4971 ft 228 kts 251°
2026-05-07 16:19 50.13132 8.89482 4980 ft 228 kts 251°
2026-05-07 16:19 50.12586 8.87158 4979 ft 228 kts 251°
2026-05-07 16:19 50.12041 8.84841 4884 ft 228 kts 251°
2026-05-07 16:19 50.11501 8.82547 4635 ft 224 kts 251°
2026-05-07 16:20 50.10966 8.80281 4313 ft 220 kts 251°
2026-05-07 16:20 50.10448 8.78086 4012 ft 211 kts 251°
2026-05-07 16:20 50.09950 8.75977 3717 ft 203 kts 251°
2026-05-07 16:20 50.09480 8.73990 3470 ft 196 kts 252°
2026-05-07 16:21 50.09007 8.71988 3163 ft 193 kts 252°
2026-05-07 16:21 50.08548 8.70052 2885 ft 188 kts 252°
2026-05-07 16:21 50.08106 8.68189 2628 ft 179 kts 252°
2026-05-07 16:21 50.07685 8.66416 2402 ft 175 kts 253°
2026-05-07 16:22 50.07266 8.64650 2126 ft 169 kts 252°
2026-05-07 16:22 50.06871 8.62991 1895 ft 155 kts 253°
2026-05-07 16:22 50.06507 8.61458 1667 ft 148 kts 252°
2026-05-07 16:22 50.06158 8.59991 1450 ft 144 kts 252°
2026-05-07 16:23 50.05810 8.58521 1209 ft 141 kts 252°
2026-05-07 16:23 50.05473 8.57095 1001 ft 139 kts 251°
2026-05-07 16:23 50.05143 8.55709 773 ft 138 kts 250°
2026-05-07 16:23 50.04804 8.54309 549 ft 138 kts 249°
2026-05-07 16:24 50.04473 8.52918 363 ft 135 kts 249°
2026-05-07 16:24 50.04183 8.51702 333 ft 97 kts 249°
2026-05-07 16:24 50.04022 8.51111 329 ft 24 kts 233°
2026-05-07 16:24 50.03934 8.50952 325 ft 20 kts 222°
2026-05-07 16:25 50.03850 8.50848 325 ft 13 kts 213°
2026-05-07 16:25 50.03793 8.50870 330 ft 6 kts 126°
2026-05-07 16:25 50.03788 8.50938 335 ft 7 kts 83°
2026-05-07 16:25 50.03813 8.51058 331 ft 17 kts 70°
2026-05-07 16:26 50.03852 8.51221 332 ft 15 kts 70°
2026-05-07 16:26 50.03887 8.51366 331 ft 13 kts 69°
2026-05-07 16:26 50.03930 8.51546 334 ft 23 kts 69°
2026-05-07 16:26 50.03990 8.51797 335 ft 25 kts 70°
2026-05-07 16:27 50.04049 8.52046 339 ft 24 kts 70°
2026-05-07 16:27 50.04106 8.52281 352 ft 22 kts 69°
2026-05-07 16:27 50.04162 8.52516 355 ft 26 kts 69°
2026-05-07 16:27 50.04228 8.52793 355 ft 27 kts 70°
2026-05-07 16:28 50.04293 8.53060 361 ft 26 kts 69°
2026-05-07 16:28 50.04349 8.53295 367 ft 20 kts 69°
2026-05-07 16:28 50.04394 8.53499 375 ft 19 kts 77°
2026-05-07 16:28 50.04408 8.53699 375 ft 18 kts 84°
2026-05-07 16:29 50.04420 8.53893 375 ft 18 kts 84°
2026-05-07 16:29 50.04433 8.54082 375 ft 17 kts 84°
2026-05-07 16:29 50.04445 8.54262 375 ft 16 kts 84°
2026-05-07 16:29 50.04453 8.54445 370 ft 18 kts 93°
2026-05-07 16:30 50.04412 8.54635 366 ft 18 kts 121°
2026-05-07 16:30 50.04315 8.54769 357 ft 19 kts 154°
2026-05-07 16:30 50.04207 8.54832 358 ft 17 kts 161°
2026-05-07 16:30 50.04116 8.54883 354 ft 11 kts 160°
2026-05-07 16:31 50.04081 8.54903 351 ft 0 kts 159°
2026-05-07 16:32 50.04078 8.54906 351 ft 3 kts 159°
2026-05-07 16:32 50.04034 8.54932 355 ft 8 kts 153°
2026-05-07 16:32 50.04019 8.55023 355 ft 11 kts 74°
2026-05-07 16:32 50.04051 8.55154 353 ft 15 kts 69°
2026-05-07 16:33 50.04091 8.55319 355 ft 17 kts 69°
2026-05-07 16:33 50.04131 8.55488 354 ft 16 kts 70°
2026-05-07 16:33 50.04169 8.55648 358 ft 14 kts 69°
2026-05-07 16:33 50.04192 8.55768 355 ft 7 kts 101°
2026-05-07 16:34 50.04162 8.55799 352 ft 5 kts 160°
2026-05-07 16:34 50.04126 8.55818 354 ft 5 kts 160°
2026-05-07 16:34 50.04120 8.55822 357 ft 0 kts 160°